This is the latest recevied weather packets stored in our database for station/object KU4DD. If no packets are shown the sender has not sent any weather packets the latest 10 day(s).
| Time | Temp. | Humidity | Pressure | Rain* | Wind** | Luminosity | Snow |
|---|---|---|---|---|---|---|---|
| 1777429115 | 20.56° C | 56% | 1015.2 hPa | 0 mm | - | - | - |
| 1777427889 | 21.11° C | 54% | 1015.2 hPa | 0 mm | - | - | - |
| 1777421508 | 21.67° C | 50% | 1013.5 hPa | 0 mm | - | - | - |
| 1777419677 | 21.67° C | 50% | 1013.9 hPa | 0 mm | - | - | - |
| 1777417239 | 21.67° C | 51% | 1014.6 hPa | 0 mm | - | - | - |
| 1777410840 | 22.22° C | 54% | 1014.6 hPa | 0 mm | - | - | - |
| 1777410203 | 22.22° C | 53% | 1014.6 hPa | 0 mm | - | - | - |
| 1777409877 | 22.22° C | 54% | 1014.6 hPa | 0 mm | - | - | - |
| 1777409562 | 22.22° C | 53% | 1014.6 hPa | 0 mm | - | - | - |
| 1777408932 | 22.22° C | 53% | 1015.2 hPa | 0 mm | - | - | - |
| 1777405484 | 21.67° C | 53% | 1015.6 hPa | 0 mm | - | - | - |
| 1777401272 | 21.67° C | 51% | 1016.3 hPa | 0 mm | - | - | - |
| 1777400945 | 21.11° C | 50% | 1016.9 hPa | 0 mm | - | - | - |
| 1777399999 | 21.11° C | 50% | 1016.9 hPa | 0 mm | - | - | - |
| 1777390923 | 20° C | 53% | 1018.6 hPa | 0 mm | - | - | - |
| 1777389981 | 20° C | 51% | 1019.6 hPa | 0 mm | - | - | - |
| 1777388101 | 20° C | 52% | 1020.7 hPa | 0 mm | - | - | - |
| 1777383388 | 20° C | 53% | 1021.7 hPa | 0 mm | - | - | - |
| 1777382115 | 20° C | 52% | 1022.4 hPa | 0 mm | - | - | - |
| 1777381791 | 20° C | 53% | 1022.4 hPa | 0 mm | - | - | - |
| 1777380223 | 20° C | 54% | 1022.7 hPa | 0 mm | - | - | - |
| 1777378652 | 20.56° C | 53% | 1022.7 hPa | 0 mm | - | - | - |
| 1777375518 | 20° C | 53% | 1020.7 hPa | 0 mm | - | - | - |
| 1777374578 | 20.56° C | 53% | 1020.7 hPa | 0 mm | - | - | - |
| 1777371760 | 18.89° C | 53% | 1018.6 hPa | 0 mm | - | - | - |
* Rain latest hour (hover to see other rain measurements)
** Current wind speed in m/s (hover to see current wind gust speed)